Hourly Data Report for January 15, 2021

CARBERRY CS
MANITOBA
Current Station Operator: ECCC - MSC

49°54'20.900" N
99°21'26.800" W
383.50 m
5010547
71170
WZE

Download Data

Hourly Data (January 2021)
Hourly Data Report for January 15, 2021
TIME
LST
Temp Definition
°C
Dew Point Definition
°C
Rel Hum Definition
%
Precip. Amount Definition
mm

Wind Dir Definition
10's deg

Wind Spd Definition
km/h
Visibility Definition
km
Stn Press Definition
kPa
Hmdx Definition


Wind Chill Definition


Weather Definition


00:00 -1.9 -4.8 80 0.0 33 25   96.57   -8 LegendNANA
01:00 -1.9 -5.2 78 0.0 33 26   96.64   -8 LegendNANA
02:00 -2.7 -5.2 82 0.0 34 29   96.73   -10 LegendNANA
03:00 -2.7 -5.5 81 0.0 34 35   96.85   -11 LegendNANA
04:00 -2.9 -5.5 83 0.0 34 27   96.94   -10 LegendNANA
05:00 -3.7 -6.2 83 0.0 34 28   97.00   -11 LegendNANA
06:00 -4.7 -6.9 84 0.0 35 20   97.08   -11 LegendNANA
07:00 -6.4 -8.1 88 0.0 1 19   97.18   -13 LegendNANA
08:00 -6.9 -8.6 87 0.0 36 18   97.29   -14 LegendNANA
09:00 -7.2 -9.0 87 0.0 36 20   97.37   -14 LegendNANA
10:00 -7.4 -9.2 87 0.0 36 17   97.38   -14 LegendNANA
11:00 -7.3 -9.1 86 0.0 35 24   97.44   -15 LegendNANA
12:00 -7.6 -9.2 88 0.0 1 24   97.39   -16 LegendNANA
13:00 -7.2 -8.8 88 0.0 36 23   97.32   -15 LegendNANA
14:00 -7.3 -9.3 86 0.0 1 17   97.25   -14 LegendNANA
15:00 -6.7 -8.8 86 0.0 34 11   97.31   -12 LegendNANA
16:00 -7.7 -9.6 87 0.0 3 10   97.30   -13 LegendNANA
17:00 -8.7 -9.3 96 0.0 2 9   97.31   -13 LegendNANA
18:00 -9.2 -9.8 95 0.0 2 5   97.27   -12 LegendNANA
19:00 -10.6 -11.6 93 0.2 3 6   97.23   -14 LegendNANA
20:00 -10.6 -11.5 93 0.0 5 5   97.18   -14 LegendNANA
21:00 -11.0 -12.0 92 0.0 27 4   97.16   -13 LegendNANA
22:00 -12.0 -13.0 92 0.0 28 3   97.10   -14 LegendNANA
23:00 -12.9 -14.1 91 0.0 29 4   97.06   -16 LegendNANA

Notes on Data Quality.

Legend

  • E = Estimated
  • M = Missing
  • NA = Not Available*
  • [empty] = Indicates an unobserved value
Date modified: